Zurück zum Katalog

DELTA 1 DEB

AktivLEO
NORAD 40759·DEBRIS·🇺🇸 United States

Gestartet Jul 29, 1976 von Vandenberg Space Force Base

Loading…

Nächste Überflüge (nächste 24 Stunden)

TLE

VeraltetSource: Space-Track

Epoche: Sep 3, 2026, 12:25 UTC

1 40759U 76077GC  26246.51771433  .00000004  00000-0  23445-3 0  9998
2 40759 102.1265 356.0167 0292872 167.0528 193.8277 12.66507707994922

Verfolge DELTA 1 DEB in Echtzeit mit AllMySat

Download on the App Store